Flag for U.S.A. Weather past 2 weeks in Peoria, Illinois, U.S.A.

Now
20 °F

Clear.


Feels Like: 12 °F
Forecast: 19 / 33 °F
Wind: 6 mph from Northwest

Location: Greater Peoria Regional Airport

Current Time: Jan 26, 2015 at 7:10:04 AM

Latest Report: Jan 26, 2015 at 5:54 AM


Visibility: 10 mi

Pressure: 30.03 "Hg

Humidity: 78%

Dew point: 14 °F

Location of PeoriaLocation

Historic Weather in Peoria — Graph

°F

Peoria temperature yesterday

Maximum temperature yesterday: 39 °F (at 1:54 AM)
Minimum temperature yesterday: 23 °F (at 10:54 PM)
Average temperature yesterday: 33 °F

Past Weeks' High & Low Weather Summary

 TemperatureHumidityPressure
High49 °F (Jan 24, 2:54 PM)96% (Jan 16, 8:54 AM)30.74 "Hg (Jan 16, 8:54 AM)
Low-1 °F (Jan 14, 1:54 AM)49% (Jan 12, 12:54 PM)29.59 "Hg (Jan 25, 3:54 AM)
Average30 °F75%30.13 "Hg
* Reported Jan 11 5:54 AM — Jan 26 5:54 AM, Peoria, Weather by CustomWeather, © 2014

Note: Actual official high and low records may vary slightly from our data, if they occured in-between our weather recording intervals... More about our weather records

Advertising

Peoria weather history for previous 24 hours

 ConditionsComfort  
Time TempWeatherWind HumidityBarometerVisibility
5:54 AM
Jan 26
20 °FClear.6 mph78%30.03 "Hg10 mi
4:54 AM20 °FClear.3 mph78%30.02 "Hg10 mi
3:54 AM20 °FClear.No wind78%30.04 "Hg10 mi
2:54 AM21 °FClear.5 mph74%30.04 "Hg10 mi
1:54 AM22 °FClear.6 mph72%30.06 "Hg10 mi
12:54 AM22 °FClear.7 mph75%30.04 "Hg10 mi
11:54 PM
Jan 25
23 °FClear.7 mph72%30.05 "Hg10 mi
10:54 PM23 °FClear.9 mph72%30.04 "Hg10 mi
9:54 PM25 °FClear.9 mph72%30.04 "Hg10 mi
8:54 PM26 °FClear.9 mph69%30.02 "Hg10 mi
7:54 PM28 °FPassing clouds.10 mph69%30.00 "Hg10 mi
6:54 PM29 °FOvercast.13 mph72%29.98 "Hg10 mi
5:54 PM30 °FOvercast.12 mph72%29.95 "Hg10 mi
4:54 PM30 °FMostly cloudy.10 mph79%29.90 "Hg10 mi
3:54 PM31 °FLight snow. Overcast.16 mph82%29.84 "Hg4 mi
3:03 PM33 °FLight snow. Fog.13 mph85%29.79 "Hg1 mi
2:54 PM33 °FLight snow. Fog.15 mph85%29.80 "Hg1 mi
1:54 PM35 °FLight snow. Fog.16 mph85%29.75 "Hg2 mi
12:54 PM35 °FLight snow. Fog.14 mph88%29.73 "Hg1 mi
11:54 AM35 °FLight snow. Fog.10 mph88%29.72 "Hg2 mi
10:54 AM35 °FLight snow. Fog.13 mph88%29.70 "Hg1 mi
9:54 AM36 °FLight snow. Fog.16 mph85%29.68 "Hg2 mi
8:54 AM36 °FLight rain. Fog.15 mph89%29.66 "Hg4 mi
7:54 AM36 °FLight rain. Fog.13 mph89%29.65 "Hg4 mi
Weather by CustomWeather, © 2014

See weather overviewHow to use our weather pages